Time,TemperatureF,DewpointF,PressureIn,WindDirection,WindDirectionDegrees,WindSpeedMPH,WindSpeedGustMPH,Humidity,HourlyPrecipIn,Conditions,Clouds,dailyrainin,SoftwareType,DateUTC
2013-05-14 00:01:00,48.4,34.3,30.17,North,0,0.0,0.0,58,0.00,,CLR,0.00,VWS V12.08,2013-05-14 04:01:00,
2013-05-14 00:02:00,48.4,34.3,30.17,North,0,0.0,0.0,58,0.00,,CLR,0.00,VWS V12.08,2013-05-14 04:02:00,
2013-05-14 00:03:00,48.4,34.3,30.17,North,0,0.0,0.0,58,0.00,,CLR,0.00,VWS V12.08,2013-05-14 04:03:00,
2013-05-14 00:08:00,48.4,34.3,30.17,North,0,0.0,0.0,58,0.00,,CLR,0.00,VWS V12.08,2013-05-14 04:08:00,
2013-05-14 00:13:00,48.0,35.2,30.17,North,0,0.0,0.0,61,0.00,,CLR,0.00,VWS V12.08,2013-05-14 04:13:00,
2013-05-14 00:18:00,48.0,35.2,30.17,North,0,0.0,0.0,61,0.00,,CLR,0.00,VWS V12.08,2013-05-14 04:18:00,
2013-05-14 00:23:00,48.0,35.2,30.18,North,0,0.0,0.0,61,0.00,,CLR,0.00,VWS V12.08,2013-05-14 04:23:00,
2013-05-14 00:28:00,48.2,35.0,30.17,North,0,0.0,0.0,60,0.00,,CLR,0.00,VWS V12.08,2013-05-14 04:28:00,
2013-05-14 00:33:00,48.4,35.2,30.18,North,0,0.0,0.0,60,0.00,,CLR,0.00,VWS V12.08,2013-05-14 04:33:00,
2013-05-14 00:38:00,48.2,35.0,30.18,North,0,0.0,0.0,60,0.00,,CLR,0.00,VWS V12.08,2013-05-14 04:38:00,
2013-05-14 00:43:00,48.2,35.0,30.17,North,0,0.0,0.0,60,0.00,,CLR,0.00,VWS V12.08,2013-05-14 04:43:00,
2013-05-14 00:48:00,48.2,35.0,30.17,North,0,0.0,0.0,60,0.00,,CLR,0.00,VWS V12.08,2013-05-14 04:48:00,
2013-05-14 00:53:00,48.4,34.7,30.17,North,0,0.0,0.0,59,0.00,,CLR,0.00,VWS V12.08,2013-05-14 04:53:00,
2013-05-14 00:58:00,48.2,35.0,30.17,North,0,0.0,0.0,60,0.00,,CLR,0.00,VWS V12.08,2013-05-14 04:58:00,
2013-05-14 01:03:00,48.2,35.0,30.17,North,0,0.0,0.0,60,0.00,,CLR,0.00,VWS V12.08,2013-05-14 05:03:00,
2013-05-14 01:08:00,48.0,34.8,30.17,North,0,0.0,0.0,60,0.00,,CLR,0.00,VWS V12.08,2013-05-14 05:08:00,
2013-05-14 01:13:00,48.0,35.2,30.17,North,0,0.0,0.0,61,0.00,,CLR,0.00,VWS V12.08,2013-05-14 05:13:00,
2013-05-14 01:18:00,47.7,34.9,30.17,North,0,0.0,0.0,61,0.00,,CLR,0.00,VWS V12.08,2013-05-14 05:18:00,
2013-05-14 01:23:00,47.5,34.7,30.17,North,0,0.0,0.0,61,0.00,,CLR,0.00,VWS V12.08,2013-05-14 05:23:00,
2013-05-14 01:28:00,47.3,35.4,30.17,North,0,0.0,0.0,63,0.00,,CLR,0.00,VWS V12.08,2013-05-14 05:28:00,
2013-05-14 01:33:00,47.1,35.2,30.17,North,0,0.0,0.0,63,0.00,,CLR,0.00,VWS V12.08,2013-05-14 05:33:00,
2013-05-14 01:38:00,47.1,35.6,30.17,North,0,0.0,0.0,64,0.00,,CLR,0.00,VWS V12.08,2013-05-14 05:38:00,
2013-05-14 01:43:00,46.9,35.4,30.17,North,0,0.0,0.0,64,0.00,,CLR,0.00,VWS V12.08,2013-05-14 05:43:00,
2013-05-14 01:48:00,46.8,35.6,30.17,North,0,0.0,0.0,65,0.00,,CLR,0.00,VWS V12.08,2013-05-14 05:48:00,
2013-05-14 01:53:00,46.6,35.5,30.17,North,0,0.0,0.0,65,0.00,,CLR,0.00,VWS V12.08,2013-05-14 05:53:00,
2013-05-14 01:58:00,46.2,35.1,30.16,North,0,0.0,0.0,65,0.00,,CLR,0.00,VWS V12.08,2013-05-14 05:58:00,
2013-05-14 02:03:00,46.2,35.1,30.17,North,0,0.0,0.0,65,0.00,,CLR,0.00,VWS V12.08,2013-05-14 06:03:00,
2013-05-14 02:08:00,46.0,35.0,30.16,North,0,0.0,0.0,65,0.00,,CLR,0.00,VWS V12.08,2013-05-14 06:08:00,
2013-05-14 02:13:00,45.7,35.0,30.17,North,0,0.0,0.0,66,0.00,,CLR,0.00,VWS V12.08,2013-05-14 06:13:00,
2013-05-14 02:18:00,45.7,35.0,30.17,North,0,0.0,0.0,66,0.00,,CLR,0.00,VWS V12.08,2013-05-14 06:18:00,
2013-05-14 02:23:00,45.7,35.0,30.17,North,0,0.0,0.0,66,0.00,,CLR,0.00,VWS V12.08,2013-05-14 06:23:00,
2013-05-14 02:28:00,45.7,35.4,30.17,North,0,0.0,0.0,67,0.00,,CLR,0.00,VWS V12.08,2013-05-14 06:28:00,
2013-05-14 02:33:00,45.7,35.4,30.17,North,0,0.0,0.0,67,0.00,,CLR,0.00,VWS V12.08,2013-05-14 06:33:00,
2013-05-14 02:38:00,45.7,35.4,30.17,North,0,0.0,0.0,67,0.00,,CLR,0.00,VWS V12.08,2013-05-14 06:38:00,
2013-05-14 02:43:00,45.1,34.8,30.17,North,0,0.0,0.0,67,0.00,,CLR,0.00,VWS V12.08,2013-05-14 06:43:00,
2013-05-14 02:48:00,44.8,34.9,30.18,North,0,0.0,0.0,68,0.00,,CLR,0.00,VWS V12.08,2013-05-14 06:48:00,
2013-05-14 02:53:00,44.6,34.7,30.17,North,0,0.0,0.0,68,0.00,,CLR,0.00,VWS V12.08,2013-05-14 06:53:00,
2013-05-14 02:58:00,44.4,34.5,30.18,North,0,0.0,0.0,68,0.00,,CLR,0.00,VWS V12.08,2013-05-14 06:58:00,
2013-05-14 03:03:00,44.2,34.7,30.18,North,0,0.0,0.0,69,0.00,,CLR,0.00,VWS V12.08,2013-05-14 07:03:00,
2013-05-14 03:08:00,43.9,34.4,30.17,North,0,0.0,0.0,69,0.00,,CLR,0.00,VWS V12.08,2013-05-14 07:08:00,
2013-05-14 03:13:00,43.9,34.4,30.18,North,0,0.0,0.0,69,0.00,,CLR,0.00,VWS V12.08,2013-05-14 07:13:00,
2013-05-14 03:18:00,43.9,34.4,30.18,North,0,0.0,0.0,69,0.00,,CLR,0.00,VWS V12.08,2013-05-14 07:18:00,
2013-05-14 03:23:00,43.9,34.4,30.18,North,0,0.0,0.0,69,0.00,,CLR,0.00,VWS V12.08,2013-05-14 07:23:00,
2013-05-14 03:28:00,43.7,34.2,30.18,North,0,0.0,0.0,69,0.00,,CLR,0.00,VWS V12.08,2013-05-14 07:28:00,
2013-05-14 03:33:00,43.7,34.2,30.18,North,0,0.0,0.0,69,0.00,,CLR,0.00,VWS V12.08,2013-05-14 07:33:00,
2013-05-14 03:38:00,43.7,34.2,30.18,North,0,0.0,0.0,69,0.00,,CLR,0.00,VWS V12.08,2013-05-14 07:38:00,
2013-05-14 03:43:00,43.3,33.9,30.19,North,0,0.0,0.0,69,0.00,,CLR,0.00,VWS V12.08,2013-05-14 07:43:00,
2013-05-14 03:48:00,43.0,33.9,30.19,North,0,0.0,0.0,70,0.00,,CLR,0.00,VWS V12.08,2013-05-14 07:48:00,
2013-05-14 03:53:00,43.0,33.9,30.18,North,0,0.0,0.0,70,0.00,,CLR,0.00,VWS V12.08,2013-05-14 07:53:00,
2013-05-14 03:58:00,43.0,34.2,30.19,North,0,0.0,0.0,71,0.00,,CLR,0.00,VWS V12.08,2013-05-14 07:58:00,
2013-05-14 04:03:00,42.6,33.9,30.19,North,0,0.0,0.0,71,0.00,,CLR,0.00,VWS V12.08,2013-05-14 08:03:00,
2013-05-14 04:08:00,42.6,33.9,30.19,North,0,0.0,0.0,71,0.00,,CLR,0.00,VWS V12.08,2013-05-14 08:08:00,
2013-05-14 04:13:00,42.4,33.7,30.19,North,0,0.0,0.0,71,0.00,,CLR,0.00,VWS V12.08,2013-05-14 08:13:00,
2013-05-14 04:19:00,42.4,33.7,30.19,North,0,0.0,0.0,71,0.00,,CLR,0.00,VWS V12.08,2013-05-14 08:19:00,
2013-05-14 04:24:00,42.4,33.7,30.19,North,0,0.0,0.0,71,0.00,,CLR,0.00,VWS V12.08,2013-05-14 08:24:00,
2013-05-14 04:29:00,42.4,33.7,30.19,North,0,0.0,0.0,71,0.00,,CLR,0.00,VWS V12.08,2013-05-14 08:29:00,
2013-05-14 04:34:00,42.4,33.7,30.19,North,0,0.0,0.0,71,0.00,,CLR,0.00,VWS V12.08,2013-05-14 08:34:00,
2013-05-14 04:39:00,42.4,33.7,30.19,North,0,0.0,0.0,71,0.00,,CLR,0.00,VWS V12.08,2013-05-14 08:39:00,
2013-05-14 04:44:00,41.5,33.5,30.19,North,0,0.0,0.0,73,0.00,,CLR,0.00,VWS V12.08,2013-05-14 08:44:00,
2013-05-14 04:49:00,41.5,33.5,30.19,North,0,0.0,0.0,73,0.00,,CLR,0.00,VWS V12.08,2013-05-14 08:49:00,
2013-05-14 04:54:00,41.5,33.5,30.19,North,0,0.0,0.0,73,0.00,,CLR,0.00,VWS V12.08,2013-05-14 08:54:00,
2013-05-14 04:59:00,41.5,33.5,30.19,North,0,0.0,0.0,73,0.00,,CLR,0.00,VWS V12.08,2013-05-14 08:59:00,
2013-05-14 05:04:00,41.5,33.5,30.19,North,0,0.0,0.0,73,0.00,,CLR,0.00,VWS V12.08,2013-05-14 09:04:00,
2013-05-14 05:09:00,41.4,33.4,30.19,North,0,0.0,0.0,73,0.00,,CLR,0.00,VWS V12.08,2013-05-14 09:09:00,
2013-05-14 05:14:00,41.4,33.4,30.19,North,0,0.0,0.0,73,0.00,,CLR,0.00,VWS V12.08,2013-05-14 09:14:00,
2013-05-14 05:19:00,41.2,33.2,30.19,North,0,0.0,0.0,73,0.00,,CLR,0.00,VWS V12.08,2013-05-14 09:19:00,
2013-05-14 05:24:00,41.2,33.2,30.19,North,0,0.0,0.0,73,0.00,,CLR,0.00,VWS V12.08,2013-05-14 09:24:00,
2013-05-14 05:29:00,40.8,32.8,30.19,North,0,0.0,0.0,73,0.00,,CLR,0.00,VWS V12.08,2013-05-14 09:29:00,
2013-05-14 05:34:00,40.8,32.8,30.19,North,0,0.0,0.0,73,0.00,,CLR,0.00,VWS V12.08,2013-05-14 09:34:00,
2013-05-14 05:39:00,40.8,33.2,30.19,North,0,0.0,0.0,74,0.00,,CLR,0.00,VWS V12.08,2013-05-14 09:39:00,
2013-05-14 05:44:00,40.8,33.2,30.20,North,0,0.0,0.0,74,0.00,,CLR,0.00,VWS V12.08,2013-05-14 09:44:00,
2013-05-14 05:49:00,40.8,33.2,30.19,North,0,0.0,0.0,74,0.00,,CLR,0.00,VWS V12.08,2013-05-14 09:49:00,
2013-05-14 05:54:00,40.8,33.2,30.20,North,0,0.0,0.0,74,0.00,,CLR,0.00,VWS V12.08,2013-05-14 09:54:00,
2013-05-14 05:59:00,40.6,32.7,30.20,North,0,0.0,0.0,73,0.00,,CLR,0.00,VWS V12.08,2013-05-14 09:59:00,
2013-05-14 06:04:00,40.6,32.7,30.21,North,0,0.0,0.0,73,0.00,,CLR,0.00,VWS V12.08,2013-05-14 10:04:00,
2013-05-14 06:09:00,40.6,33.0,30.21,North,0,0.0,0.0,74,0.00,,CLR,0.00,VWS V12.08,2013-05-14 10:09:00,
2013-05-14 06:14:00,40.6,33.0,30.21,North,0,0.0,0.0,74,0.00,,CLR,0.00,VWS V12.08,2013-05-14 10:14:00,
2013-05-14 06:19:00,40.6,33.0,30.20,North,0,0.0,0.0,74,0.00,,CLR,0.00,VWS V12.08,2013-05-14 10:19:00,
2013-05-14 06:24:00,40.5,33.2,30.20,ENE,68,0.0,0.0,75,0.00,,CLR,0.00,VWS V12.08,2013-05-14 10:24:00,
2013-05-14 06:29:00,40.3,33.0,30.21,ENE,68,0.0,0.0,75,0.00,,CLR,0.00,VWS V12.08,2013-05-14 10:29:00,
2013-05-14 06:34:00,40.3,33.0,30.20,East,90,0.0,0.0,75,0.00,,CLR,0.00,VWS V12.08,2013-05-14 10:34:00,
2013-05-14 06:39:00,40.3,33.0,30.20,East,90,0.0,0.0,75,0.00,,CLR,0.00,VWS V12.08,2013-05-14 10:39:00,
2013-05-14 06:44:00,40.3,33.0,30.21,East,90,0.0,0.0,75,0.00,,CLR,0.00,VWS V12.08,2013-05-14 10:44:00,
2013-05-14 06:49:00,40.3,33.0,30.21,East,90,0.0,0.0,75,0.00,,CLR,0.00,VWS V12.08,2013-05-14 10:49:00,
2013-05-14 06:54:00,40.3,33.0,30.21,East,90,0.0,0.0,75,0.00,,CLR,0.00,VWS V12.08,2013-05-14 10:54:00,
2013-05-14 06:59:00,40.5,33.2,30.21,East,90,0.0,0.0,75,0.00,,CLR,0.00,VWS V12.08,2013-05-14 10:59:00,
2013-05-14 07:04:00,40.6,33.3,30.22,East,90,0.0,0.0,75,0.00,,CLR,0.00,VWS V12.08,2013-05-14 11:04:00,
2013-05-14 07:09:00,40.6,33.3,30.22,East,90,0.0,0.0,75,0.00,,CLR,0.00,VWS V12.08,2013-05-14 11:09:00,
2013-05-14 07:14:00,40.6,33.7,30.22,East,90,0.0,0.0,76,0.00,,CLR,0.00,VWS V12.08,2013-05-14 11:14:00,
2013-05-14 07:19:00,41.2,34.2,30.22,East,90,0.0,0.0,76,0.00,,CLR,0.00,VWS V12.08,2013-05-14 11:19:00,
2013-05-14 07:24:00,41.2,34.2,30.22,East,90,0.0,0.0,76,0.00,,CLR,0.00,VWS V12.08,2013-05-14 11:24:00,
2013-05-14 07:29:00,41.5,34.5,30.22,East,90,0.0,0.0,76,0.00,,CLR,0.00,VWS V12.08,2013-05-14 11:29:00,
2013-05-14 07:34:00,41.5,34.5,30.22,East,90,0.0,0.0,76,0.00,,CLR,0.00,VWS V12.08,2013-05-14 11:34:00,
2013-05-14 07:39:00,41.7,34.7,30.23,East,90,0.0,0.0,76,0.00,,CLR,0.00,VWS V12.08,2013-05-14 11:39:00,
2013-05-14 07:44:00,41.9,34.9,30.22,East,90,0.0,0.0,76,0.00,,CLR,0.00,VWS V12.08,2013-05-14 11:44:00,
2013-05-14 07:49:00,42.3,35.2,30.22,East,90,0.0,0.0,76,0.00,,CLR,0.00,VWS V12.08,2013-05-14 11:49:00,
2013-05-14 07:54:00,42.4,35.4,30.22,ESE,112,0.0,0.0,76,0.00,,CLR,0.00,VWS V12.08,2013-05-14 11:54:00,
2013-05-14 07:59:00,42.6,35.6,30.22,ESE,112,0.0,0.0,76,0.00,,CLR,0.00,VWS V12.08,2013-05-14 11:59:00,
2013-05-14 08:04:00,43.0,36.0,30.22,ESE,112,0.0,0.0,76,0.00,,CLR,0.00,VWS V12.08,2013-05-14 12:04:00,
2013-05-14 08:09:00,43.5,36.5,30.23,ESE,112,0.0,0.0,76,0.00,,CLR,0.00,VWS V12.08,2013-05-14 12:09:00,
2013-05-14 08:14:00,43.9,36.8,30.23,ESE,112,0.0,0.0,76,0.00,,CLR,0.00,VWS V12.08,2013-05-14 12:14:00,
2013-05-14 08:19:00,44.4,37.0,30.23,ESE,112,0.0,0.0,75,0.00,,CLR,0.00,VWS V12.08,2013-05-14 12:19:00,
2013-05-14 08:24:00,44.4,37.0,30.23,ESE,112,0.0,0.0,75,0.00,,CLR,0.00,VWS V12.08,2013-05-14 12:24:00,
2013-05-14 08:29:00,44.4,37.0,30.23,ESE,112,0.0,0.0,75,0.00,,CLR,0.00,VWS V12.08,2013-05-14 12:29:00,
2013-05-14 08:34:00,46.0,38.2,30.22,ESE,112,0.0,0.0,74,0.00,,CLR,0.00,VWS V12.08,2013-05-14 12:34:00,
2013-05-14 08:39:00,46.2,38.4,30.23,ESE,112,0.0,0.0,74,0.00,,CLR,0.00,VWS V12.08,2013-05-14 12:39:00,
2013-05-14 08:44:00,46.9,38.4,30.22,East,90,0.0,0.0,72,0.00,,CLR,0.00,VWS V12.08,2013-05-14 12:44:00,
2013-05-14 08:49:00,47.5,38.2,30.22,West,270,0.0,0.0,70,0.00,,CLR,0.00,VWS V12.08,2013-05-14 12:49:00,
2013-05-14 08:54:00,48.0,38.0,30.22,WSW,248,0.0,0.0,68,0.00,,CLR,0.00,VWS V12.08,2013-05-14 12:54:00,
2013-05-14 08:59:00,48.7,38.3,30.22,ESE,112,0.0,0.0,67,0.00,,CLR,0.00,VWS V12.08,2013-05-14 12:59:00,
2013-05-14 09:04:00,49.3,38.4,30.22,NNE,22,0.0,0.0,66,0.00,,CLR,0.00,VWS V12.08,2013-05-14 13:04:00,
2013-05-14 09:09:00,49.8,38.5,30.22,ENE,68,0.0,0.0,65,0.00,,CLR,0.00,VWS V12.08,2013-05-14 13:09:00,
2013-05-14 09:14:00,50.2,37.7,30.22,WSW,248,0.0,0.0,62,0.00,,CLR,0.00,VWS V12.08,2013-05-14 13:14:00,
2013-05-14 09:19:00,50.5,37.6,30.22,ESE,112,0.0,0.0,61,0.00,,CLR,0.00,VWS V12.08,2013-05-14 13:19:00,
2013-05-14 09:24:00,50.7,37.8,30.22,NE,45,0.0,0.0,61,0.00,,CLR,0.00,VWS V12.08,2013-05-14 13:24:00,
2013-05-14 09:29:00,50.7,37.8,30.22,NNE,22,0.0,0.0,61,0.00,,CLR,0.00,VWS V12.08,2013-05-14 13:29:00,
2013-05-14 09:34:00,50.7,37.8,30.22,NNE,22,0.0,0.0,61,0.00,,CLR,0.00,VWS V12.08,2013-05-14 13:34:00,
2013-05-14 09:39:00,52.2,39.1,30.22,ENE,68,0.0,0.0,61,0.00,,CLR,0.00,VWS V12.08,2013-05-14 13:39:00,
2013-05-14 09:44:00,52.5,38.2,30.22,ENE,68,0.0,0.0,58,0.00,,CLR,0.00,VWS V12.08,2013-05-14 13:44:00,
2013-05-14 09:49:00,52.9,39.0,30.22,North,0,0.0,0.7,59,0.00,,CLR,0.00,VWS V12.08,2013-05-14 13:49:00,
2013-05-14 09:54:00,53.8,39.4,30.22,NE,45,0.0,2.2,58,0.00,,CLR,0.00,VWS V12.08,2013-05-14 13:54:00,
2013-05-14 09:59:00,54.1,38.3,30.22,SE,135,0.0,2.2,55,0.00,,CLR,0.00,VWS V12.08,2013-05-14 13:59:00,
2013-05-14 10:04:00,54.7,38.8,30.22,East,90,0.0,1.1,55,0.00,,CLR,0.00,VWS V12.08,2013-05-14 14:04:00,
2013-05-14 10:09:00,55.2,40.3,30.22,NW,315,0.0,1.1,57,0.00,,CLR,0.00,VWS V12.08,2013-05-14 14:09:00,
2013-05-14 10:14:00,55.9,39.1,30.22,WSW,248,0.0,1.1,53,0.00,,CLR,0.00,VWS V12.08,2013-05-14 14:14:00,
2013-05-14 10:19:00,57.0,40.1,30.22,West,270,0.0,1.1,53,0.00,,CLR,0.00,VWS V12.08,2013-05-14 14:19:00,
2013-05-14 10:24:00,57.9,39.9,30.23,SW,225,0.0,2.0,51,0.00,,CLR,0.00,VWS V12.08,2013-05-14 14:24:00,
2013-05-14 10:29:00,58.3,39.2,30.22,WSW,248,0.0,2.0,49,0.00,,CLR,0.00,VWS V12.08,2013-05-14 14:29:00,
2013-05-14 10:34:00,58.5,39.9,30.22,NNE,22,0.0,2.0,50,0.00,,CLR,0.00,VWS V12.08,2013-05-14 14:34:00,
2013-05-14 10:39:00,58.6,40.1,30.22,West,270,0.0,2.0,50,0.00,,CLR,0.00,VWS V12.08,2013-05-14 14:39:00,
2013-05-14 10:44:00,58.8,40.8,30.22,West,270,0.0,0.0,51,0.00,,CLR,0.00,VWS V12.08,2013-05-14 14:44:00,
2013-05-14 10:49:00,58.8,40.2,30.22,West,270,0.0,0.0,50,0.00,,CLR,0.00,VWS V12.08,2013-05-14 14:49:00,
2013-05-14 10:54:00,59.2,41.6,30.22,NNW,338,0.0,0.0,52,0.00,,CLR,0.00,VWS V12.08,2013-05-14 14:54:00,
2013-05-14 10:59:00,59.5,39.8,30.22,WNW,292,0.0,1.8,48,0.00,,CLR,0.00,VWS V12.08,2013-05-14 14:59:00,
2013-05-14 11:04:00,59.5,39.8,30.22,NNW,338,0.0,2.9,48,0.00,,CLR,0.00,VWS V12.08,2013-05-14 15:04:00,
2013-05-14 11:09:00,59.5,38.8,30.22,NW,315,3.8,3.8,46,0.00,,CLR,0.00,VWS V12.08,2013-05-14 15:09:00,
2013-05-14 11:14:00,59.5,38.8,30.22,NW,315,0.0,4.3,46,0.00,,CLR,0.00,VWS V12.08,2013-05-14 15:14:00,
2013-05-14 11:19:00,59.7,38.9,30.22,WNW,292,0.0,4.3,46,0.00,,CLR,0.00,VWS V12.08,2013-05-14 15:19:00,
2013-05-14 11:24:00,60.1,39.8,30.22,NNE,22,0.0,0.0,47,0.00,,CLR,0.00,VWS V12.08,2013-05-14 15:24:00,
2013-05-14 11:29:00,60.6,40.3,30.21,North,0,0.0,2.0,47,0.00,,CLR,0.00,VWS V12.08,2013-05-14 15:29:00,
2013-05-14 11:34:00,61.2,40.8,30.21,WNW,292,0.0,2.0,47,0.00,,CLR,0.00,VWS V12.08,2013-05-14 15:34:00,
2013-05-14 11:39:00,61.5,40.0,30.21,NW,315,0.0,6.9,45,0.00,,CLR,0.00,VWS V12.08,2013-05-14 15:39:00,
2013-05-14 11:44:00,61.9,39.8,30.21,NW,315,0.0,4.9,44,0.00,,CLR,0.00,VWS V12.08,2013-05-14 15:44:00,
2013-05-14 11:49:00,62.4,39.7,30.21,North,0,0.0,4.9,43,0.00,,CLR,0.00,VWS V12.08,2013-05-14 15:49:00,
2013-05-14 11:54:00,63.1,39.1,30.21,West,270,0.0,4.9,41,0.00,,CLR,0.00,VWS V12.08,2013-05-14 15:54:00,
2013-05-14 11:59:00,63.7,40.2,30.21,ESE,112,0.0,4.9,42,0.00,,CLR,0.00,VWS V12.08,2013-05-14 15:59:00,
2013-05-14 12:04:00,64.2,40.7,30.20,NW,315,0.0,0.0,42,0.00,,CLR,0.00,VWS V12.08,2013-05-14 16:04:00,
2013-05-14 12:09:00,64.9,42.5,30.20,SSE,158,0.0,4.5,44,0.00,,CLR,0.00,VWS V12.08,2013-05-14 16:09:00,
2013-05-14 12:14:00,65.5,42.4,30.19,NW,315,0.0,4.5,43,0.00,,CLR,0.00,VWS V12.08,2013-05-14 16:14:00,
2013-05-14 12:19:00,66.0,42.9,30.19,West,270,0.0,4.7,43,0.00,,CLR,0.00,VWS V12.08,2013-05-14 16:19:00,
2013-05-14 12:24:00,66.4,45.0,30.19,West,270,0.0,0.0,46,0.00,,CLR,0.00,VWS V12.08,2013-05-14 16:24:00,
2013-05-14 12:29:00,67.3,42.8,30.19,NE,45,0.0,2.7,41,0.00,,CLR,0.00,VWS V12.08,2013-05-14 16:29:00,
2013-05-14 12:34:00,67.5,41.0,30.19,WSW,248,0.7,2.9,38,0.00,,CLR,0.00,VWS V12.08,2013-05-14 16:34:00,
2013-05-14 12:39:00,67.5,43.0,30.18,NE,45,0.4,4.5,41,0.00,,CLR,0.00,VWS V12.08,2013-05-14 16:39:00,
2013-05-14 12:44:00,68.2,45.5,30.18,NE,45,0.0,0.0,44,0.00,,CLR,0.00,VWS V12.08,2013-05-14 16:44:00,
2013-05-14 12:49:00,68.7,46.0,30.18,East,90,0.0,0.9,44,0.00,,CLR,0.00,VWS V12.08,2013-05-14 16:49:00,
2013-05-14 12:54:00,69.3,46.4,30.18,ENE,68,2.0,2.0,44,0.00,,CLR,0.00,VWS V12.08,2013-05-14 16:54:00,
2013-05-14 12:59:00,69.6,45.5,30.18,North,0,0.0,2.0,42,0.00,,CLR,0.00,VWS V12.08,2013-05-14 16:59:00,
2013-05-14 13:04:00,70.0,45.9,30.18,SSW,202,0.0,0.0,42,0.00,,CLR,0.00,VWS V12.08,2013-05-14 17:04:00,
2013-05-14 13:09:00,70.2,47.2,30.18,East,90,0.0,0.9,44,0.00,,CLR,0.00,VWS V12.08,2013-05-14 17:09:00,
2013-05-14 13:14:00,70.3,45.5,30.17,WSW,248,2.0,2.0,41,0.00,,CLR,0.00,VWS V12.08,2013-05-14 17:14:00,
2013-05-14 13:19:00,70.5,47.0,30.17,ENE,68,0.0,2.0,43,0.00,,CLR,0.00,VWS V12.08,2013-05-14 17:19:00,
2013-05-14 13:24:00,70.9,47.9,30.17,ENE,68,0.0,0.7,44,0.00,,CLR,0.00,VWS V12.08,2013-05-14 17:24:00,
2013-05-14 13:29:00,71.2,47.0,30.16,SW,225,0.0,3.4,42,0.00,,CLR,0.00,VWS V12.08,2013-05-14 17:29:00,
2013-05-14 13:34:00,70.9,46.0,30.16,WSW,248,0.0,3.4,41,0.00,,CLR,0.00,VWS V12.08,2013-05-14 17:34:00,
2013-05-14 13:39:00,70.9,46.7,30.16,South,180,0.0,3.4,42,0.00,,CLR,0.00,VWS V12.08,2013-05-14 17:39:00,
2013-05-14 13:44:00,71.2,48.2,30.16,ESE,112,0.0,0.0,44,0.00,,CLR,0.00,VWS V12.08,2013-05-14 17:44:00,
2013-05-14 13:50:00,71.4,47.8,30.15,NNW,338,0.0,0.4,43,0.00,,CLR,0.00,VWS V12.08,2013-05-14 17:50:00,
2013-05-14 13:55:00,71.8,48.7,30.15,ENE,68,0.0,0.9,44,0.00,,CLR,0.00,VWS V12.08,2013-05-14 17:55:00,
2013-05-14 14:00:00,72.0,48.9,30.14,NW,315,0.0,2.9,44,0.00,,CLR,0.00,VWS V12.08,2013-05-14 18:00:00,
2013-05-14 14:05:00,72.1,45.2,30.14,NW,315,0.0,6.3,38,0.00,,CLR,0.00,VWS V12.08,2013-05-14 18:05:00,
2013-05-14 14:10:00,71.4,44.5,30.14,WNW,292,0.0,6.3,38,0.00,,CLR,0.00,VWS V12.08,2013-05-14 18:10:00,
2013-05-14 14:15:00,71.4,45.2,30.14,NNW,338,0.0,6.3,39,0.00,,CLR,0.00,VWS V12.08,2013-05-14 18:15:00,
2013-05-14 14:20:00,71.4,45.2,30.14,NNW,338,0.0,6.3,39,0.00,,CLR,0.00,VWS V12.08,2013-05-14 18:20:00,
2013-05-14 14:25:00,71.4,44.5,30.14,West,270,0.0,4.0,38,0.00,,CLR,0.00,VWS V12.08,2013-05-14 18:25:00,
2013-05-14 14:30:00,71.4,44.5,30.14,West,270,0.0,7.6,38,0.00,,CLR,0.00,VWS V12.08,2013-05-14 18:30:00,
2013-05-14 14:35:00,71.4,44.5,30.14,NW,315,2.7,7.6,38,0.00,,CLR,0.00,VWS V12.08,2013-05-14 18:35:00,
2013-05-14 14:40:00,71.4,43.1,30.14,NNW,338,0.0,7.6,36,0.00,,CLR,0.00,VWS V12.08,2013-05-14 18:40:00,
2013-05-14 14:45:00,71.4,45.9,30.13,NNE,22,0.0,0.0,40,0.00,,CLR,0.00,VWS V12.08,2013-05-14 18:45:00,
2013-05-14 14:50:00,71.8,44.8,30.13,ENE,68,0.0,7.4,38,0.00,,CLR,0.00,VWS V12.08,2013-05-14 18:50:00,
2013-05-14 14:55:00,71.8,43.4,30.13,West,270,0.0,7.4,36,0.00,,CLR,0.00,VWS V12.08,2013-05-14 18:55:00,
2013-05-14 15:00:00,71.8,44.8,30.12,West,270,0.9,7.4,38,0.00,,CLR,0.00,VWS V12.08,2013-05-14 19:00:00,
2013-05-14 15:05:00,72.0,45.0,30.12,NW,315,5.1,5.1,38,0.00,,CLR,0.00,VWS V12.08,2013-05-14 19:05:00,
2013-05-14 15:10:00,72.1,45.2,30.12,WNW,292,0.0,5.1,38,0.00,,CLR,0.00,VWS V12.08,2013-05-14 19:10:00,
2013-05-14 15:15:00,72.3,45.3,30.12,NNW,338,0.0,7.6,38,0.00,,CLR,0.00,VWS V12.08,2013-05-14 19:15:00,
2013-05-14 15:20:00,72.3,44.6,30.11,North,0,0.0,0.0,37,0.00,,CLR,0.00,VWS V12.08,2013-05-14 19:20:00,
2013-05-14 15:25:00,72.5,45.5,30.11,West,270,0.0,3.1,38,0.00,,CLR,0.00,VWS V12.08,2013-05-14 19:25:00,
2013-05-14 15:30:00,72.9,45.8,30.11,WNW,292,0.0,3.8,38,0.00,,CLR,0.00,VWS V12.08,2013-05-14 19:30:00,
2013-05-14 15:35:00,73.2,46.8,30.10,West,270,0.0,3.8,39,0.00,,CLR,0.00,VWS V12.08,2013-05-14 19:35:00,
2013-05-14 15:40:00,73.2,46.1,30.10,SW,225,0.0,3.8,38,0.00,,CLR,0.00,VWS V12.08,2013-05-14 19:40:00,
2013-05-14 15:45:00,73.0,46.0,30.09,NNW,338,0.0,4.7,38,0.00,,CLR,0.00,VWS V12.08,2013-05-14 19:45:00,
2013-05-14 15:50:00,73.2,48.1,30.09,ESE,112,0.0,4.7,41,0.00,,CLR,0.00,VWS V12.08,2013-05-14 19:50:00,
2013-05-14 15:55:00,73.8,48.6,30.09,SW,225,0.0,4.7,41,0.00,,CLR,0.00,VWS V12.08,2013-05-14 19:55:00,
2013-05-14 16:00:00,74.1,48.9,30.09,East,90,0.0,4.7,41,0.00,,CLR,0.00,VWS V12.08,2013-05-14 20:00:00,
2013-05-14 16:05:00,74.3,49.1,30.09,NE,45,0.0,4.0,41,0.00,,CLR,0.00,VWS V12.08,2013-05-14 20:05:00,
2013-05-14 16:10:00,74.3,47.8,30.08,NW,315,0.0,4.0,39,0.00,,CLR,0.00,VWS V12.08,2013-05-14 20:10:00,
2013-05-14 16:15:00,74.3,47.8,30.08,North,0,0.0,4.0,39,0.00,,CLR,0.00,VWS V12.08,2013-05-14 20:15:00,
2013-05-14 16:20:00,74.5,47.9,30.08,ENE,68,0.0,0.0,39,0.00,,CLR,0.00,VWS V12.08,2013-05-14 20:20:00,
2013-05-14 16:25:00,74.8,48.9,30.08,SW,225,0.0,4.0,40,0.00,,CLR,0.00,VWS V12.08,2013-05-14 20:25:00,
2013-05-14 16:30:00,74.8,48.9,30.08,ESE,112,0.0,4.0,40,0.00,,CLR,0.00,VWS V12.08,2013-05-14 20:30:00,
2013-05-14 16:35:00,74.8,49.6,30.07,East,90,0.0,4.5,41,0.00,,CLR,0.00,VWS V12.08,2013-05-14 20:35:00,
2013-05-14 16:40:00,74.8,48.9,30.07,SE,135,0.0,0.0,40,0.00,,CLR,0.00,VWS V12.08,2013-05-14 20:40:00,
2013-05-14 16:45:00,75.0,49.8,30.07,SSE,158,4.3,4.3,41,0.00,,CLR,0.00,VWS V12.08,2013-05-14 20:45:00,
2013-05-14 16:50:00,75.0,48.4,30.07,WNW,292,0.0,4.3,39,0.00,,CLR,0.00,VWS V12.08,2013-05-14 20:50:00,
2013-05-14 16:55:00,75.0,50.4,30.07,East,90,0.0,4.3,42,0.00,,CLR,0.00,VWS V12.08,2013-05-14 20:55:00,
2013-05-14 17:00:00,75.0,48.4,30.08,ENE,68,1.3,4.0,39,0.00,,CLR,0.00,VWS V12.08,2013-05-14 21:00:00,
2013-05-14 17:05:00,74.8,48.9,30.07,ESE,112,0.0,4.0,40,0.00,,CLR,0.00,VWS V12.08,2013-05-14 21:05:00,
2013-05-14 17:10:00,74.8,48.2,30.08,NW,315,0.0,4.0,39,0.00,,CLR,0.00,VWS V12.08,2013-05-14 21:10:00,
2013-05-14 17:15:00,74.8,47.6,30.07,WNW,292,0.0,4.0,38,0.00,,CLR,0.00,VWS V12.08,2013-05-14 21:15:00,
2013-05-14 17:20:00,74.8,48.2,30.08,NW,315,0.0,0.9,39,0.00,,CLR,0.00,VWS V12.08,2013-05-14 21:20:00,
2013-05-14 17:25:00,74.5,47.2,30.07,ESE,112,0.0,8.5,38,0.00,,CLR,0.00,VWS V12.08,2013-05-14 21:25:00,
2013-05-14 17:30:00,74.5,47.2,30.08,NNW,338,0.0,8.5,38,0.00,,CLR,0.00,VWS V12.08,2013-05-14 21:30:00,
2013-05-14 17:35:00,74.5,47.2,30.07,NW,315,0.0,8.5,38,0.00,,CLR,0.00,VWS V12.08,2013-05-14 21:35:00,
2013-05-14 17:40:00,74.5,48.6,30.08,SSE,158,0.4,2.2,40,0.00,,CLR,0.00,VWS V12.08,2013-05-14 21:40:00,
2013-05-14 17:45:00,74.5,49.3,30.07,ENE,68,0.0,4.7,41,0.00,,CLR,0.00,VWS V12.08,2013-05-14 21:45:00,
2013-05-14 17:50:00,74.3,49.1,30.07,ENE,68,0.0,4.7,41,0.00,,CLR,0.00,VWS V12.08,2013-05-14 21:50:00,
2013-05-14 17:55:00,74.3,49.8,30.07,WNW,292,0.0,4.7,42,0.00,,CLR,0.00,VWS V12.08,2013-05-14 21:55:00,
2013-05-14 18:00:00,73.9,48.1,30.07,ENE,68,0.9,0.9,40,0.00,,CLR,0.00,VWS V12.08,2013-05-14 22:00:00,
2013-05-14 18:05:00,73.9,48.8,30.08,NW,315,0.0,0.9,41,0.00,,CLR,0.00,VWS V12.08,2013-05-14 22:05:00,
2013-05-14 18:10:00,73.9,48.1,30.07,South,180,0.0,1.1,40,0.00,,CLR,0.00,VWS V12.08,2013-05-14 22:10:00,
2013-05-14 18:15:00,73.9,47.5,30.08,NE,45,0.0,2.9,39,0.00,,CLR,0.00,VWS V12.08,2013-05-14 22:15:00,
2013-05-14 18:20:00,73.8,47.3,30.08,NNE,22,0.0,1.8,39,0.00,,CLR,0.00,VWS V12.08,2013-05-14 22:20:00,
2013-05-14 18:25:00,73.6,47.1,30.08,East,90,0.0,3.6,39,0.00,,CLR,0.00,VWS V12.08,2013-05-14 22:25:00,
2013-05-14 18:30:00,73.2,46.8,30.07,WSW,248,0.0,3.6,39,0.00,,CLR,0.00,VWS V12.08,2013-05-14 22:30:00,
2013-05-14 18:35:00,73.2,47.5,30.07,ENE,68,0.0,3.6,40,0.00,,CLR,0.00,VWS V12.08,2013-05-14 22:35:00,
2013-05-14 18:40:00,73.0,47.3,30.08,North,0,0.0,0.0,40,0.00,,CLR,0.00,VWS V12.08,2013-05-14 22:40:00,
2013-05-14 18:45:00,73.0,47.3,30.07,North,0,0.0,0.0,40,0.00,,CLR,0.00,VWS V12.08,2013-05-14 22:45:00,
2013-05-14 18:50:00,72.7,48.3,30.07,ESE,112,0.0,0.0,42,0.00,,CLR,0.00,VWS V12.08,2013-05-14 22:50:00,
2013-05-14 18:55:00,72.3,48.0,30.07,NNE,22,0.0,0.0,42,0.00,,CLR,0.00,VWS V12.08,2013-05-14 22:55:00,
2013-05-14 19:00:00,72.1,47.8,30.07,NE,45,0.0,0.0,42,0.00,,CLR,0.00,VWS V12.08,2013-05-14 23:00:00,
2013-05-14 19:05:00,71.4,48.4,30.07,ENE,68,0.0,0.0,44,0.00,,CLR,0.00,VWS V12.08,2013-05-14 23:05:00,
2013-05-14 19:10:00,71.2,48.2,30.07,East,90,0.0,1.1,44,0.00,,CLR,0.00,VWS V12.08,2013-05-14 23:10:00,
2013-05-14 19:15:00,70.9,48.5,30.06,East,90,0.0,1.1,45,0.00,,CLR,0.00,VWS V12.08,2013-05-14 23:15:00,
2013-05-14 19:20:00,70.5,48.2,30.06,ENE,68,0.0,0.0,45,0.00,,CLR,0.00,VWS V12.08,2013-05-14 23:20:00,
2013-05-14 19:25:00,70.3,48.6,30.06,East,90,0.0,0.0,46,0.00,,CLR,0.00,VWS V12.08,2013-05-14 23:25:00,
2013-05-14 19:30:00,70.0,47.7,30.06,East,90,0.0,0.0,45,0.00,,CLR,0.00,VWS V12.08,2013-05-14 23:30:00,
2013-05-14 19:35:00,69.4,47.2,30.06,SSW,202,0.0,3.4,45,0.00,,CLR,0.00,VWS V12.08,2013-05-14 23:35:00,
2013-05-14 19:40:00,69.1,48.0,30.06,ESE,112,0.0,0.0,47,0.00,,CLR,0.00,VWS V12.08,2013-05-14 23:40:00,
2013-05-14 19:45:00,68.5,47.5,30.06,ENE,68,0.0,0.0,47,0.00,,CLR,0.00,VWS V12.08,2013-05-14 23:45:00,
2013-05-14 19:50:00,68.2,46.6,30.06,West,270,0.0,5.4,46,0.00,,CLR,0.00,VWS V12.08,2013-05-14 23:50:00,
2013-05-14 19:55:00,67.8,46.3,30.06,NE,45,3.6,5.4,46,0.00,,CLR,0.00,VWS V12.08,2013-05-14 23:55:00,
2013-05-14 20:00:00,67.8,46.9,30.06,ENE,68,0.0,0.0,47,0.00,,CLR,0.00,VWS V12.08,2013-05-15 00:00:00,
2013-05-14 20:05:00,67.3,46.9,30.06,East,90,0.0,0.0,48,0.00,,CLR,0.00,VWS V12.08,2013-05-15 00:05:00,
2013-05-14 20:10:00,66.9,47.2,30.06,ESE,112,0.0,0.0,49,0.00,,CLR,0.00,VWS V12.08,2013-05-15 00:10:00,
2013-05-14 20:15:00,66.4,47.2,30.06,ESE,112,0.0,0.0,50,0.00,,CLR,0.00,VWS V12.08,2013-05-15 00:15:00,
2013-05-14 20:20:00,66.0,47.4,30.06,NNW,338,0.0,3.4,51,0.00,,CLR,0.00,VWS V12.08,2013-05-15 00:20:00,
2013-05-14 20:25:00,65.7,47.1,30.06,NNW,338,0.0,3.4,51,0.00,,CLR,0.00,VWS V12.08,2013-05-15 00:25:00,
2013-05-14 20:30:00,65.3,47.2,30.06,ENE,68,0.0,3.4,52,0.00,,CLR,0.00,VWS V12.08,2013-05-15 00:30:00,
2013-05-14 20:35:00,65.1,47.1,30.06,ENE,68,0.0,3.4,52,0.00,,CLR,0.00,VWS V12.08,2013-05-15 00:35:00,
2013-05-14 20:40:00,64.6,47.1,30.05,NE,45,0.0,0.0,53,0.00,,CLR,0.00,VWS V12.08,2013-05-15 00:40:00,
2013-05-14 20:45:00,64.2,47.2,30.05,NE,45,0.0,0.0,54,0.00,,CLR,0.00,VWS V12.08,2013-05-15 00:45:00,
2013-05-14 20:50:00,64.0,47.1,30.05,ENE,68,0.0,0.0,54,0.00,,CLR,0.00,VWS V12.08,2013-05-15 00:50:00,
2013-05-14 20:55:00,63.7,46.7,30.05,NNE,22,0.0,0.0,54,0.00,,CLR,0.00,VWS V12.08,2013-05-15 00:55:00,
2013-05-14 21:00:00,63.7,47.2,30.05,ENE,68,0.7,1.1,55,0.00,,CLR,0.00,VWS V12.08,2013-05-15 01:00:00,
2013-05-14 21:05:00,63.3,47.4,30.05,NNW,338,0.0,1.1,56,0.00,,CLR,0.00,VWS V12.08,2013-05-15 01:05:00,
2013-05-14 21:10:00,63.1,46.7,30.06,West,270,0.0,1.1,55,0.00,,CLR,0.00,VWS V12.08,2013-05-15 01:10:00,
2013-05-14 21:15:00,63.1,46.7,30.05,ESE,112,0.0,1.1,55,0.00,,CLR,0.00,VWS V12.08,2013-05-15 01:15:00,
2013-05-14 21:20:00,63.0,46.6,30.05,ESE,112,0.0,0.0,55,0.00,,CLR,0.00,VWS V12.08,2013-05-15 01:20:00,
2013-05-14 21:25:00,63.0,47.0,30.06,SW,225,0.0,0.0,56,0.00,,CLR,0.00,VWS V12.08,2013-05-15 01:25:00,
2013-05-14 21:30:00,63.0,47.0,30.06,NE,45,0.0,0.0,56,0.00,,CLR,0.00,VWS V12.08,2013-05-15 01:30:00,
2013-05-14 21:35:00,63.0,47.0,30.06,SW,225,0.0,5.4,56,0.00,,CLR,0.00,VWS V12.08,2013-05-15 01:35:00,
2013-05-14 21:40:00,63.1,47.2,30.06,East,90,0.0,0.0,56,0.00,,CLR,0.00,VWS V12.08,2013-05-15 01:40:00,
2013-05-14 21:45:00,63.1,47.2,30.06,East,90,0.0,0.0,56,0.00,,CLR,0.00,VWS V12.08,2013-05-15 01:45:00,
2013-05-14 21:50:00,63.0,47.5,30.06,East,90,0.0,1.3,57,0.00,,CLR,0.00,VWS V12.08,2013-05-15 01:50:00,
2013-05-14 21:55:00,62.8,47.3,30.06,ENE,68,0.0,2.2,57,0.00,,CLR,0.00,VWS V12.08,2013-05-15 01:55:00,
2013-05-14 22:00:00,62.8,47.3,30.06,ESE,112,0.0,0.0,57,0.00,,CLR,0.00,VWS V12.08,2013-05-15 02:00:00,
2013-05-14 22:05:00,62.8,47.8,30.06,ESE,112,0.0,0.0,58,0.00,,CLR,0.00,VWS V12.08,2013-05-15 02:05:00,
2013-05-14 22:10:00,62.8,47.8,30.06,ESE,112,0.0,0.0,58,0.00,,CLR,0.00,VWS V12.08,2013-05-15 02:10:00,
2013-05-14 22:15:00,62.8,47.8,30.06,SE,135,1.3,3.6,58,0.00,,CLR,0.00,VWS V12.08,2013-05-15 02:15:00,
2013-05-14 22:20:00,63.0,47.5,30.06,NW,315,1.6,1.6,57,0.00,,CLR,0.00,VWS V12.08,2013-05-15 02:20:00,
2013-05-14 22:25:00,63.1,48.1,30.06,ESE,112,0.0,9.0,58,0.00,,CLR,0.00,VWS V12.08,2013-05-15 02:25:00,
2013-05-14 22:30:00,63.1,47.7,30.06,NNE,22,0.0,9.0,57,0.00,,CLR,0.00,VWS V12.08,2013-05-15 02:30:00,
2013-05-14 22:35:00,63.3,47.8,30.06,ESE,112,0.0,9.0,57,0.00,,CLR,0.00,VWS V12.08,2013-05-15 02:35:00,
2013-05-14 22:40:00,63.3,47.8,30.06,WNW,292,2.2,2.2,57,0.00,,CLR,0.00,VWS V12.08,2013-05-15 02:40:00,
2013-05-14 22:45:00,63.7,48.2,30.06,East,90,0.0,5.6,57,0.00,,CLR,0.00,VWS V12.08,2013-05-15 02:45:00,
2013-05-14 22:50:00,63.5,48.5,30.06,ESE,112,0.0,5.6,58,0.00,,CLR,0.00,VWS V12.08,2013-05-15 02:50:00,
2013-05-14 22:55:00,63.3,48.3,30.06,East,90,0.0,5.6,58,0.00,,CLR,0.00,VWS V12.08,2013-05-15 02:55:00,
2013-05-14 23:00:00,63.1,48.1,30.05,East,90,0.0,0.7,58,0.00,,CLR,0.00,VWS V12.08,2013-05-15 03:00:00,
2013-05-14 23:05:00,63.3,48.8,30.05,ESE,112,0.0,0.7,59,0.00,,CLR,0.00,VWS V12.08,2013-05-15 03:05:00,
2013-05-14 23:10:00,63.1,48.1,30.05,ESE,112,0.0,0.7,58,0.00,,CLR,0.00,VWS V12.08,2013-05-15 03:10:00,
2013-05-14 23:15:00,63.0,48.4,30.05,ENE,68,0.0,2.2,59,0.00,,CLR,0.00,VWS V12.08,2013-05-15 03:15:00,
2013-05-14 23:20:00,62.8,48.3,30.05,ENE,68,0.0,0.0,59,0.00,,CLR,0.00,VWS V12.08,2013-05-15 03:20:00,
2013-05-14 23:25:00,62.8,48.3,30.05,ESE,112,0.0,0.0,59,0.00,,CLR,0.00,VWS V12.08,2013-05-15 03:25:00,
2013-05-14 23:30:00,63.0,48.4,30.05,SW,225,0.0,2.9,59,0.00,,CLR,0.00,VWS V12.08,2013-05-15 03:30:00,
2013-05-14 23:35:00,63.3,48.8,30.05,West,270,0.0,2.9,59,0.00,,CLR,0.00,VWS V12.08,2013-05-15 03:35:00,
2013-05-14 23:40:00,63.3,48.3,30.05,West,270,0.0,0.0,58,0.00,,CLR,0.00,VWS V12.08,2013-05-15 03:40:00,
2013-05-14 23:45:00,63.3,48.3,30.05,West,270,0.0,0.0,58,0.00,,CLR,0.00,VWS V12.08,2013-05-15 03:45:00,
2013-05-14 23:50:00,63.1,48.6,30.05,West,270,0.0,0.0,59,0.00,,CLR,0.00,VWS V12.08,2013-05-15 03:50:00,
2013-05-14 23:55:00,62.8,48.3,30.05,West,270,0.0,0.0,59,0.00,,CLR,0.00,VWS V12.08,2013-05-15 03:55:00,